Showing default

COSMOS 2328, 23790

Orbit data source: Space-Track

COSMOS 2328, 23790 is a payload satellite owned by VKS (CIS) in LEO that was launched on Mon, 19 Feb 1996 UTC via a TSIKLON-3 launch vehicle from the Plesetsk Missile And Space Complex (PKMTR). Payloads include a variety of satellites, spacecraft, and rockets equipped with specific instruments for various scientific and technological missions. These include communications satellites like Starlink; space stations such as the ISS; scientific satellites like the Hubble; Earth observation satellites from companies like Planet Labs, Umbra, and HawkEye 360; GPS; miniature CubeSats for education and research; and military/defense satellites.

Loading next visibility...
COSMOS 2328 details
Identifier
23790, 1996-009D
Orbit
LEO
Last TLE update1 day ago
Origin
Flag of CISVKS (CIS)
ManufacturerNPO PM
MissionNon-operational Defense Communications
Bus & MotorSTRELA-3, Unknown motor
Mass225 kg wet, 225 kg dry
Launch date (UTC)
1996-02-19 (29 years ago)
Launch vehicle
TSIKLON-3
Launch site
Plesetsk Missile And Space Complex (PKMTR)
Object type
Payload
Rocket body
Debris
Shape & HBRCyl + 1 Ant, 7 m
Radar Cross Section1.583 m², Large (>1 m²)

Expand to show TLE details & history

TLE from 1 day ago
0 COSMOS 2328
1 23790U 96009D   24347.67010473  .00000027  00000-0  94134-4 0  9997
2 23790  82.5773 311.6953 0006704 222.2247 137.8328 12.62583827327874
Epoch: 2024-12-12T16:04Z
Definitive object data (Epoch: 2024-12-12T16:04:57.048Z)
Latitude-0.00009°
Longitude-11.38952°
Altitude1,418.901 km
Speed7.15 km/s
True Right ascension20h 46m 46s
True Declination0° 00' 00"
Sunlit
Object was in daylight at TLE epoch
Visualization TLE readout
Latitude75.10366°
Longitude138.62083°
Altitude1,427.439 km
Speed7.153 km/s
Apparent Right ascension08h 47m 39s
Apparent Declination27° 50' 45"
Sunlit
Object is in full shadow
Visualization observer readout
Local Sidereal Time21:35:21
Azimuth11.311° NNE
Elevation-21.335°
Doppler factor1
Orbital elements
Apogee altitude1,414.839 km
Perigee altitude1,404.397 km
Semi-major axis7,787.755 km
Eccentricity0.0006704
Inclination82.5773°
RAAN311.6953°
Arg. of periapsis222.2247°
True anomaly137.88434°
Mean anomaly137.8328°
Eccentric anomaly137.85857°
Mean motion3.15809 °/min
BSTAR0.000094134
Orbital period113.99 mins
Loading maneuver chart data...
Loading historical data...
Loading historical data...
Loading historical data...
Loading historical data...
Loading historical data...
Loading historical data...
Loading historical data...

COSMOS 2328 Visibility forecast

Observer location: undefined°, undefined

Span
Click to sort rows by Start time (UTC) header in descending order
Start Az.
Max El. time (UTC)
Max El. Az.
Max El.
End time (UTC)
End Az.
9 mins2024-12-14 00:35:20.856Z264.479° W2024-12-14 00:39:20.856Z294.147° NW15.289°2024-12-14 00:44:20.856Z332.027° NNW
14 mins2024-12-14 08:38:20.856Z10.326° NNE2024-12-14 08:44:20.856Z66.319° ENE32.886°2024-12-14 08:52:20.856Z141.295° SSE
13 mins2024-12-14 10:33:20.856Z334.676° NNW2024-12-14 10:39:20.856Z279.098° WNW33.265°2024-12-14 10:46:20.856Z209.811° SW
13 mins2024-12-14 21:26:20.856Z148.21° SSE2024-12-14 21:32:20.856Z92.078° ESE32.925°2024-12-14 21:39:20.856Z24.544° NE
|